636  
NZUS93 KARX 221410  
HRRWXR  
 
CURRENT HOURLY OBSERVATIONS ACROSS  
MUCH OF THE UPPER MISSISSIPPI VALLEY  
NATIONAL WEATHER SERVICE LA CROSSE WI  
900 AM CDT TUE AUG 22 2017  
 
   
..SOUTHEAST MINNESOTA
 
 
 
CITY SKY/WX TMP DP RH WIND PRES REMARKS  
ROCHESTER PTSUNNY 62 58 86 NW14G20 30.02R  
ROCHESTER/MAYO PTSUNNY 62 57 84 NW13G25 30.01R  
WINONA MOSUNNY 66 59 77 NW13G18 29.97R  
AUSTIN SUNNY 63 55 77 NW13 30.03R  
ALBERT LEA MOSUNNY 63 59 88 NW6 30.06R  
DODGE CENTER MOSUNNY 61 55 82 NW13 30.03R  
PRESTON PTSUNNY 62 57 84 NW13G20 30.01R  
OWATONNA SUNNY 61 57 88 NW13 30.04R  
FARIBAULT SUNNY 63 55 77 NW10 30.04R  

 
   
..ELSEWHERE IN MINNESOTA
 
 
 
CITY SKY/WX TMP DP RH WIND PRES REMARKS  
MINNEAPOLIS SUNNY 63 54 72 NW14 30.03R  
INTNL FALLS PTSUNNY 54 52 93 W6 29.91S  
DULUTH MOSUNNY 57 53 86 W10 29.93F  
RED WING SUNNY 64 54 68 NW6G18 29.99R  
REDWOOD FALLS SUNNY 60 53 77 NW10 30.10R  
MANKATO SUNNY 60 55 83 NW14 30.08R  
WORTHINGTON SUNNY 60 50 69 NW12 30.14R  
FAIRMONT SUNNY 60 55 83 NW14 30.10R  

 
   
..SOUTHWEST WISCONSIN
 
 
 
CITY SKY/WX TMP DP RH WIND PRES REMARKS  
LA CROSSE MOSUNNY 69 58 67 NW14 29.95R  
PRAIRIE DU CHI PTSUNNY 67 58 74 NW8 29.95R  
BOSCOBEL MOSUNNY 69 61 75 NW7 29.93R  
LONE ROCK CLOUDY 69 62 78 NW13G18 29.91R  
PLATTEVILLE CLOUDY 66 66 99 W8 29.94S  
FORT MC COY PTSUNNY 65 58 78 NW14G23 29.94R  
CAMP DOUGLAS MOSUNNY 68 61 77 NW14 29.91R  
MAUSTON-NEW LI PTSUNNY 65 60 81 NW13G20 29.90R  
VIROQUA CLOUDY 64 60 86 NW15G21 29.95R  
WIS DELLS CLOUDY 67 58 72 NW16G24 29.89R  

 
   
..ELSEWHERE IN WISCONSIN
 
 
 
CITY SKY/WX TMP DP RH WIND PRES REMARKS  
MILWAUKEE PTSUNNY 71 63 75 W15 29.84R  
MADISON CLOUDY 68 63 84 W9 29.88R  
GREEN BAY CLOUDY 66 59 78 NW21G29 29.81R  
EAU CLAIRE MOSUNNY 64 55 72 NW14G20 29.95R  
BLACK RVR FLS FAIR 67 55 65 NW9G17 29.93R  
MEDFORD PTSUNNY 59 53 81 NW14G22 29.91R  
WAUSAU SUNNY 63 53 70 NW18G25 29.87R  
WIS RAPIDS SUNNY 65 55 70 N16G24 29.90R  
MARSHFIELD MOSUNNY 64 54 69 NW12 29.90R  
RICE LAKE SUNNY 61 52 72 NW9G17 29.98S  

 
   
..NORTHEAST IOWA
 
 
 
CITY SKY/WX TMP DP RH WIND PRES REMARKS  
WATERLOO MOSUNNY 65 60 84 NW16 30.00R  
DUBUQUE CLOUDY 66 62 87 NW9 29.96R  
DECORAH PTSUNNY 64 61 88 NW15 29.98R  
MASON CITY NOT AVBL  
CHARLES CITY PTSUNNY 63 61 94 NW12G24 30.03R  
OELWEIN MOSUNNY 66 63 88 NW14G21 30.00R  

 
   
..ELSEWHERE IN IOWA
 
 
 
CITY SKY/WX TMP DP RH WIND PRES REMARKS  
DES MOINES MOSUNNY 68 61 78 NW13 30.05R  
IOWA CITY CLOUDY 69 63 81 NW10 29.99R  
FORT DODGE SUNNY 61 54 77 N8 30.08R  
MARSHALLTOWN SUNNY 65 61 87 NW17G24 30.02R  
CEDAR RAPIDS CLOUDY 66 63 90 NW14 29.98R  

 
   
..NORTHERN ILLINOIS
 
 
 
CITY SKY/WX TMP DP RH WIND PRES REMARKS  
CHICAGO-OHARE CLOUDY 72 66 81 W13 29.86F  
CHICAGO-MIDWAY CLOUDY 72 68 87 W13 29.87S  
MOLINE CLOUDY 69 63 81 W16G22 29.95R  
ROCKFORD CLOUDY 69 63 81 W9 29.91S  
PEORIA CLOUDY 70 68 93 NW7 29.94S  

 
 
NOTE: "FAIR" INDICATES FEW OR NO CLOUDS BELOW 12,000 FEET WITH NO  
SIGNIFICANT WEATHER AND/OR OBSTRUCTIONS TO VISIBILITY. WIND  
SPEEDS ARE IN MILES-PER-HOUR.  
 
 
CLICK HERE TO GO TO PREVIOUS BULLETINS.

The Nexlab WI Page
The Nexlab IA Page
The Nexlab MN Page Main Text Page